Location: Linz
(48.3300°N, 14.3000°E)
Time: 18:58:10
(UTC+02:00)

YUBILEINY - Pass Details

Date: 26 February 2019
Orbit: 1478 x 1508 km, 82.5° (Epoch: 15 October)

Event Time Altitude Azimuth Distance (km) Brightness Sun altitude
Rises 02:14:57 0° 129° (SE) 4,591 ? -43.3°
Reaches altitude 10° 02:18:57 10° 112° (ESE) 3,617 ? -42.8°
Maximum altitude 02:24:17 18° 73° (ENE) 3,021 ? -42.2°
Drops below altitude 10° 02:29:38 10° 35° (NE) 3,638 ? -41.6°
Sets 02:33:38 0° 18° (NNE) 4,627 ? -41.1°
